Location: Saint-Restitut
(44.3351°N, 4.7915°E)
Time: 08:32:07
(UTC+00:00)

CSL-04 Rocket - Pass Details

Date: 03 February 2023
Orbit: 806 x 859 km, 98.8° (Epoch: 26 March)

Event Time Altitude Azimuth Distance (km) Brightness Sun altitude
Exits shadow 18:47:08 38° 59° (ENE) 1,239 4.1 -20.7°
Drops below altitude 10° 18:51:48 10° 1° (N) 2,443 6.1 -21.5°
Sets 18:54:19 0° 353° (N) 3,390 6.9 -22.0°
